[Iaude] MPEC L10: 2019 VS7 [a=2.49,e=0.65,i=30.3,H=18.7]

mpec at marsden.cfa.harvard.edu mpec at marsden.cfa.harvard.edu
Wed Jun 3 07:28:53 EDT 2020


M.P.E.C. 2020-L10                                  Issued 2020 June 3, 11:27 UT

     The Minor Planet Electronic Circulars contain information on unusual
         minor planets and routine data on comets.  They are published
    on behalf of Division F of the International Astronomical Union by the
          Minor Planet Center, Smithsonian Astrophysical Observatory,
                          Cambridge, MA 02138, U.S.A.

             Prepared using the Tamkin Foundation Computer Network

                              MPC at CFA.HARVARD.EDU
            URL https://www.minorplanetcenter.net/    ISSN 1523-6714

                                    2019 VS7                                    


Observations:
     K19V07S  C2016 01 09.22253202 22 35.271-10 24 13.77         23.2 GVEL010F51
     K19V07S  C2016 01 09.23316002 22 35.074-10 24 02.54         22.4 GVEL010F51
     K19V07S  C2016 01 09.24376102 22 34.879-10 23 51.35         22.4 GVEL010F51
     K19V07S  C2016 01 09.25435002 22 34.686-10 23 40.11         23.1 GVEL010F51
     K19V07S  C2019 11 03.50474104 05 15.041-15 42 36.02         21.7 GVEL010F51
     K19V07S* C2019 11 03.51798004 05 14.037-15 42 40.57         22.33wUEL010F51
     K19V07S  C2019 11 03.53123104 05 13.047-15 42 44.89         22.38wUEL010F51
     K19V07S  C2019 11 09.43746203 57 33.030-16 10 58.73         22.2 GVEL010F51
     K19V07S  C2019 11 09.44837603 57 32.095-16 11 01.54         21.9 GVEL010F51
     K19V07S  C2019 11 28.36875403 27 35.683-16 13 50.30         21.4 GVEL010F51
     K19V07S  C2019 12 30.30151502 42 48.594-10 09 39.26         21.5 GVEL010F51
     K19V07S  C2019 12 30.31287802 42 47.954-10 09 27.29         21.9 GVEL010F51
     K19V07S  C2019 12 30.32423902 42 47.317-10 09 15.23         21.8 GVEL010F51
     K19V07S  C2020 05 28.15164 07 51 27.13 +45 16 05.6          20.3 GVEL010G96
     K19V07S  C2020 05 28.15628 07 51 28.96 +45 16 05.8          20.1 GVEL010G96
     K19V07S  C2020 05 28.16092 07 51 30.72 +45 16 06.4          19.9 GVEL010G96
     K19V07S  C2020 05 28.16557 07 51 32.53 +45 16 06.6          20.4 GVEL010G96
     K19V07S  C2020 05 28.18066 07 51 38.39 +45 16 08.1          20.6 GVEL010G96
     K19V07S  C2020 05 28.18107 07 51 38.54 +45 16 08.1          20.3 GVEL010G96
     K19V07S  C2020 05 28.18147 07 51 38.73 +45 16 08.1          20.4 GVEL010G96
     K19V07S KC2020 05 28.69115 07 54 57.68 +45 16 52.2          20.8 GVEL010N88
     K19V07S KC2020 05 28.69287 07 54 58.39 +45 16 52.6          20.1 GVEL010N88
     K19V07S  C2020 05 29.14616 07 57 56.31 +45 17 19.9          20.9 GVEL010G96
     K19V07S  C2020 05 29.14680 07 57 56.52 +45 17 19.5          20.6 GVEL010G96
     K19V07S  C2020 05 29.14744 07 57 56.80 +45 17 19.3          20.2 GVEL010G96
     K19V07S  C2020 05 29.14828 07 57 57.17 +45 17 20.2          21.1 GVEL010I52
     K19V07S  C2020 05 29.15163 07 57 58.56 +45 17 19.3          20.7 GVEL010I52
     K19V07S  C2020 05 29.15331 07 57 59.11 +45 17 19.4          20.6 GVEL010I52
     K19V07S  C2020 06 03.15120 08 31 31.07 +45 00 32.5          19.5 GVEL010I52
     K19V07S  C2020 06 03.15317 08 31 31.87 +45 00 31.7          19.7 GVEL010I52
     K19V07S  C2020 06 03.15712 08 31 33.34 +45 00 30.6                VEL010I52

Observer details:
F51 Pan-STARRS 1, Haleakala.  Observers J. Bulger, K. Chambers, T. Lowe, A.
    Schultz, M. Willman, E. Magnier.  Measurers S. Chastel, M. Huber, Y.
    Ramanjooloo, R. Wainscoat, R. Weryk, K. Chambers, T. de Boer, L. Denneau,
    J. Fairlamb, H. Flewelling, C.-C. Lin, E. Magnier.  1.8-m Ritchey-Chretien
    + CCD.
G96 Mt. Lemmon Survey.  Observer K. W. Wierzchos.  Measurers E. J.
    Christensen, G. A. Farneth, D. C. Fuls, A. R. Gibbs, A. D. Grauer, H.
    Groeller, R. A. Kowalski, S. M. Larson, G. J. Leonard, T. A. Pruyne, D.
    Rankin, R. L. Seaman, F. C. Shelly, K. W. Wierzchos.  1.5-m reflector +
    10K CCD.
I52 Steward Observatory, Mt. Lemmon Station.  Observer R. A. Kowalski.
    Measurers E. J. Christensen, G. A. Farneth, D. C. Fuls, A. R. Gibbs, A. D.
    Grauer, H. Groeller, R. A. Kowalski, S. M. Larson, G. J. Leonard, T. A.
    Pruyne, D. Rankin, R. L. Seaman, F. C. Shelly, K. W. Wierzchos.  1.0-m
    reflector + CCD.
N88 Xingming Observatory #3, Nanshan.  Observer X. Gao.  Measurer Q.-Z. Ye.
    0.6-m f/8 Ritchey-Chretien + CCD.

Orbital elements:
2019 VS7                                                 Earth MOID = 0.2018 AU
Epoch 2020 May 31.0 TT = JDT 2459000.5                  Veres
M   1.85307              (2000.0)            P               Q
n   0.25033470     Peri.   80.39451     -0.85909661     -0.08905921
a   2.4933812      Node    93.18391     -0.08849142     -0.94406759
e   0.6507688      Incl.   30.31706     +0.50410543     -0.31749777
P   3.94           H   18.7           G   0.15           U   2
Residuals in seconds of arc
160109 F51  0.0   0.0     191230 F51  0.0   0.1-    200529 G96  0.3+  0.5+
160109 F51  0.0   0.0     191230 F51  0.0   0.0     200529 G96  0.1-  0.1+
160109 F51  0.0   0.0     200528 G96  0.1+  0.0     200529 G96  0.2+  0.1-
160109 F51  0.0   0.1+    200528 G96  0.4+  0.2-    200529 I52  0.6+  0.8+
191103 F51  0.1+  0.1+    200528 G96  0.0   0.0     200529 I52  1.4+  0.1-
191103 F51  0.1-  0.0     200528 G96  0.1+  0.2-    200529 I52  0.3+  0.0
191103 F51  0.1-  0.1+    200528 G96  0.0   0.0     200603 I52  0.1-  0.4-
191109 F51  0.2+  0.1+    200528 G96  0.1-  0.0     200603 I52  0.1-  0.2-
191109 F51  0.2+  0.1-    200528 G96  0.3+  0.0     200603 I52  1.7-  0.5+
191128 F51  0.1-  0.0     200528 N88  1.0-  0.5-
191230 F51  0.1-  0.1-    200528 N88  0.6-  0.2-

Ephemeris:
2019 VS7                 a,e,i = 2.49, 0.65, 30                  q = 0.8708
Date    TT    R. A. (2000) Decl.     Delta      r    Elong.  Phase     V
2020 05 04    05 40 59.3 +39 30 05   1.2943  0.9176    44.9    50.8    21.0
...
2020 05 19    06 55 37.1 +44 05 25   1.1691  0.8735    46.5    57.2    20.8
...
2020 05 27    07 44 02.3 +45 12 57   1.0992  0.8722    48.6    60.6    20.8
...
2020 06 02    08 23 40.8 +45 07 59   1.0484  0.8819    50.6    62.7    20.8
2020 06 03    08 30 29.4 +45 01 40   1.0402  0.8843    51.0    63.0    20.8
2020 06 04    08 37 20.5 +44 53 41   1.0321  0.8870    51.4    63.3    20.8
...
2020 06 10    09 18 58.3 +43 28 27   0.9868  0.9080    53.9    64.6    20.7
...
2020 06 18    10 13 54.9 +39 50 26   0.9374  0.9474    57.9    65.2    20.7
...
2020 07 03    11 46 04.6 +28 13 15   0.8963  1.0489    66.2    62.4    20.8

M. P. C. Staff               (C) Copyright 2020 MPC           M.P.E.C. 2020-L10




More information about the Iaude mailing list